Погода в Кыбартаи

Поиск расширенной информации на нашем сайте:

Полезная информация:

Новости сайта



02.01.2020
Опубликован Долгосрочный прогноз погоды по городам России и ближнего зарубежья на январь 2020 года.
Карты: Прогноз на январь и февраль 2020 года, Сравнение прогнозируемой аномалии приземной температуры воздуха на январь 2020 года по разным моделям.




Погода в Кыбартаи - сегодня

Время (UTC), дата Ветер
(°,м/с) 
Видим.   Явления Облачность Т
(°С)
Тd
(°С)
f(%) Тe
(°С)
Pmin
(гПа)
dP
(гПа)
Po
(мм)
O2
(г/м3)
Тmin Tmax R s Состояние
почвы
09 26.02.20 230 (ЮЗ) 6-10{10}  20000 м    4/0 
+5.7 +0.8 71 +3  990  -0.2  737  291           
12 26.02.20 200 (Ю) 6-8{11}  20000 м    4/0 
+7.3 +1.3 66 +5  990  0.1  737  289           
15 26.02.20 220 (ЮЗ) 4-7{10}  20000 м    6/0 
+5.7 +0.8 71 +4  990.7  0.7  738  291           
18 26.02.20 230 (ЮЗ) 3-4{07}  20000 м    9/0 
+2.8 +0.3 84 +1  991.9  1.1  738  294    +7.5       
21 26.02.20 230 (ЮЗ) 3-4{04}  20000 м    8/0 
+2.2 -0.4 83 +1  992.3  0.4  739  295           
00 27.02.20 230 (ЮЗ) 3-4{05}  20000 м    ясно 
+0.2 -1.8 86 -2  993.1  0.7  739  298           
03 27.02.20 240 (ЮЗ) 5-7{07}  20000 м    9/9 1000 м 
+1.1 -1.3 84 -2  993.6  0.6  740  297           
06 27.02.20 240 (ЮЗ) 6-8{09}  20000 м    9/9 1500 м 
+0.7 -1.5 85 -3  994.9  1.2  741  298  +0         
09 27.02.20 250 (З) 8-13{13}  18000 м    8/8 1500 м 
+2.7 -1.4 74 -1  995.5  0.7  741  296           
12 27.02.20 250 (З) 8-13{13}  20000 м  в посл. час дождь  9/9 1500 м 
+2.6 -1.5 74 -1  995.9  0.4  741  296      0.0     
15 27.02.20 250 (З) 7-12{14}  20000 м    9/9 1000 м 
+1.7 -2.6 73 -2  996.9  742  297      0.0     
18 27.02.20 250 (З) 5-7{12}  20000 м    3/0 
+0.2 -4.2 72 -3  997.4  0.4  743  299    +3.7       
21 27.02.20 240 (ЮЗ) 7-10{11}  20000 м    10/10 1500 м 
+0.3 -4.3 71 -4  997.4  0.1  743  299           
00 28.02.20 250 (З) 5-10{11}  20000 м    10/10 1000 м 
+0.4 -4 72 -3  998.9  1.4  744  300           
03 28.02.20 240 (ЮЗ) 5-7{10}  20000 м    1/0 
-1.1 -3 87 -4  999.9  744  301           
06 28.02.20 260 (З) 4-6{07}  20000 м    8/8 600 м 
-0.6 -2.2 89 -3  1001.5  1.5  746  301  -1.4         
09 28.02.20 250 (З) 7-11{11}  20000 м    9/9 1000 м 
+1.8 -2.5 73 -2  1003.2  1.8  747  299           
12 28.02.20 270 (З) 7-12{14}  20000 м  в посл. час дождь  9/9 1000 м 
+3.3 -1.5 71 1005.1  1.9  748  298      0.0     
15 28.02.20 270 (З) 5-8{13}  20000 м    ясно 1000 м 
+2.7 -2 71 1007  1.9  750  299           
18 28.02.20 240 (ЮЗ) 2-3{08}  20000 м    9/0 2000 м 
+0.1 -3.2 78 -1  1008  750  303    +4.7       
21 28.02.20 250 (З) 5-7{07}  20000 м  слаб. дождь  9/9 600 м 
+1.9 -2.4 73 -1  1007.8  -0.2  750  301      0.0     
00 29.02.20 250 (З) 4-6{10}  20000 м    6/6 600 м 
+0.8 -1 88 -2  1008.2  0.4  751  302           
03 29.02.20 250 (З) 5-7{08}  20000 м    9/9 300 м 
+1 -0.3 91 -2  1008.5  0.2  751  301      0.2     
06 29.02.20 250 (З) 4-7{07}  20000 м    10/10 300 м 
+0.9 -0.2 92 -1  1008.5  -0.1  751  302  +0    0.2     
09 29.02.20 220 (ЮЗ) 4-6{08}  20000 м    5/0 
+4.3 +0.7 77 +3  1007.8  -0.6  750  298           
Время (UTC), дата Ветер
(°,м/с) 
Видим.   Явления Облачность Т
(°С)
Тd
(°С)
f(%) Тe
(°С)
Pmin
(гПа)
dP
(гПа)
Po
(мм)
O2
(г/м3)
Тmin Tmax R s Состояние
почвы

Для получения пояснительной информации подведите курсор к названию столбца.

ПОГОДА в Кыбартаи - архив

Всё, что Вы хотите узнать о погоде в Кыбартаи - удобно и подробно!

Выберите нужную дату (начиная с 1 января 2019* года) и нажмите кнопку "Найти".
Будут отображены архивные сводки погоды по пункту Кыбартаи, начиная с указанной даты.


Отображать данные в формате CSV (для использования в таблицах Excel)


Внимание! Наш архив погоды предназначен исключительно для личного некоммерческого использования в познавательных целях. Если Вам необходимы официальные справки о состоянии погоды (для производственных, юридических, коммерческих и т.п. целей), обращайтесь в органы Росгидромета.

*Примечание: данная дата относится к архиву по метеостанциям СССР (Россия, СНГ, Балтия).
Архив по метеостанциям Зарубежной Европы и Азии (кроме Китая) хранится 10 дней, по другим регионам земного шара (Китай, Африка, Америка, Австралия, Океания) - 1 день.

Кыбартаи - район местоположения метеостанции


Название, широта, долгота, высота метеостанции:
Кыбартаи 54.6°ш. 22.8°д. 59 м над ур. моря [Литва]

Дополнительная информация

В oтличие oт бoльшинства пoгoдных сайтoв мы публикуем пoдрoбную метеoинфoрмацию в детальнoм прoфессиoнальнoм фoрмате.

Характеристики температуры и влажнoсти вoздуха измеряются на высoте 2 м в тени вдали oт зданий и деревьев.
Скoрoсть ветра измеряется на высoте 10 м (на урoвне рoста челoвека скoрoсть ветра ниже в 1.5-2 раза). Если метеoстанция нахoдится в гoрoде или в лесу, тo скoрoсть ветра занижена на 2-4 м/с пo сравнению с oткрытым местoм. Скoрoсть ветра над акватoриями крупных рек и oзёр, а также на вершинах хoлмoв на 2-5 м/с выше, чем в oбычных услoвиях.
Атмoсфернoе давление в разных тoчках местнoсти мoжет значительнo oтличаться oт давления на метеoстанции, в зависимoсти oт услoвий рельефа (при пoдъёме на 10 м давление пoнижается примернo на 1 мм рт.ст.).